Home   Weather   Germany   Berlin   Past weeks
Flag for Germany

Past Weather in Berlin, Germany — Yesterday and Last 2 Weeks

Currently: 61 °F. Clear. (Weather station: Berlin-Schoenefeld, Germany). See more current weather

Past Weather in Berlin — Graph

°F

Berlin Temperature Yesterday

Maximum temperature yesterday: 81 °F (at 10:50 am)
Minimum temperature yesterday: 61 °F (at 7:20 pm)
Average temperature yesterday: 68 °F

High & Low Weather Summary for the Past Weeks

 TemperatureHumidityPressure
High99 °F (Jun 19, 1:50 pm)100% (Jun 25, 4:50 am)30.24 "Hg (Jun 25, 4:50 am)
Low52 °F (Jun 21, 12:20 am)19% (Jun 22, 5:20 pm)29.65 "Hg (Jun 19, 12:50 pm)
Average72 °F59%29.94 "Hg
* Reported Jun 16 11:20 pm — Jul 1 11:20 pm, Berlin. Weather by CustomWeather, © 2022

Note: Actual official high and low records may vary slightly from our data, if they occured in-between our weather recording intervals... More about our weather records

Berlin Weather History for the Previous 24 Hours

Scroll right to see more
 ConditionsComfort  
Time TempWeatherWind HumidityBarometerVisibility
11:20 pm
Fri, Jul 1
61 °FClear.7 mph83%30.15 "Hg10 mi
10:50 pm63 °FPassing clouds.5 mph77%30.15 "HgN/A
10:20 pm63 °FPassing clouds.9 mph73%30.12 "HgN/A
9:50 pm63 °FPassing clouds.10 mph77%30.12 "HgN/A
9:20 pm63 °FPartly sunny.9 mph77%30.09 "HgN/A
8:20 pm63 °FPartly sunny.13 mph77%30.09 "HgN/A
7:50 pm63 °FPartly sunny.14 mph77%30.07 "HgN/A
7:20 pm61 °FPartly sunny.12 mph88%30.07 "HgN/A
6:50 pm63 °FPartly sunny.17 mph77%30.07 "HgN/A
5:50 pm63 °FPartly sunny.15 mph83%30.04 "HgN/A
5:20 pm63 °FPartly sunny.13 mph88%30.04 "HgN/A
4:50 pm63 °FLight rain. Partly sunny.16 mph88%30.01 "HgN/A
4:20 pm64 °FPartly sunny.17 mph78%30.01 "HgN/A
3:50 pm64 °FPartly sunny.17 mph83%30.01 "HgN/A
3:20 pm64 °FPartly sunny.18 mph83%30.01 "HgN/A
2:50 pm66 °FPartly sunny.20 mph78%29.95 "HgN/A
2:20 pm66 °FPartly sunny.21 mph78%29.95 "HgN/A
1:50 pm64 °FPartly sunny.18 mph83%29.95 "HgN/A
1:20 pm64 °FPartly sunny.20 mph83%29.98 "HgN/A
12:50 pm66 °FPartly sunny.22 mph78%29.95 "HgN/A
12:20 pm68 °FPartly sunny.23 mph78%29.95 "HgN/A
11:50 am70 °FPartly sunny.26 mph73%29.92 "HgN/A
11:20 am79 °FPartly sunny.9 mph58%29.89 "HgN/A
10:50 am81 °FPartly sunny.9 mph54%29.89 "HgN/A
10:20 am79 °FPartly sunny.7 mph65%29.89 "HgN/A
9:50 am77 °FPartly sunny.8 mph65%29.89 "HgN/A
9:20 am77 °FPartly sunny.8 mph69%29.89 "HgN/A
8:50 am77 °FPartly sunny.8 mph69%29.89 "HgN/A
8:20 am75 °FPassing clouds.9 mph74%29.89 "HgN/A
7:50 am75 °FPassing clouds.7 mph74%29.89 "HgN/A
7:20 am73 °FSunny.8 mph78%29.86 "Hg10 mi
6:50 am70 °FSunny.7 mph88%29.86 "Hg10 mi
6:20 am68 °FSunny.7 mph94%29.86 "Hg10 mi
5:50 am68 °FSunny.5 mph88%29.86 "Hg10 mi
5:20 am66 °FSunny.5 mph94%29.86 "Hg10 mi
4:50 am68 °FSunny.7 mph88%29.86 "Hg10 mi
4:20 am66 °FClear.6 mph94%29.86 "Hg10 mi
3:50 am66 °FClear.6 mph94%29.86 "Hg10 mi
3:20 am68 °FClear.5 mph88%29.86 "Hg10 mi
1:20 am70 °FClear.7 mph83%29.86 "Hg10 mi
12:50 am70 °FClear.7 mph83%29.86 "Hg10 mi
12:20 am70 °FClear.7 mph83%29.86 "Hg10 mi
Weather by CustomWeather, © 2022

See weather overview